Other Public Products
Issued by NWS Grand Forks, ND

Home | Current Version | Previous Version | Graphics & Text | Print | Product List | Glossary On
Versions: 1 2 3 4 5 6 7 8 9 10 11 12 13 14 15 16 17 18 19 20 21 22 23 24 25 26 27 28 29 30 31 32 33 34 35 36 37 38 39 40 41 42 43 44 45 46 47 48 49 50
000
FPUS83 KFGF 241610
OPUFGF
PRAIRIE TO PINES WEATHER ROUNDUP
NATIONAL WEATHER SERVICE EASTERN NORTH DAKOTA/GRAND FORKS ND
1100 AM CDT SUN SEP 24 2017

 **SATELLITE DATA USED TO AUGMENT SKY COVER AT AUTOMATED STATIONS**
 *****  WEATHER ACROSS EASTERN NORTH DAKOTA  *****

CITY           SKY/WX    TMP DP  RH WIND       PRES   REMARKS
GRAND FORKS    LGT RAIN  53  53 100 N12       29.87R FOG
GRAND FORKS AF LGT RAIN  52  52 100 N14       29.89R
GRAND CITY NWS NOT AVBL
BUXTON         NOT AVBL
DEVILS LAKE    RAIN      48  46  93 N17G25    29.95R
FARGO          LGT RAIN  56  55  97 N8        29.84R FOG
WAHPETON ARPT  CLOUDY    63  61  94 SE6       29.82F
$$

 *****  WEATHER ACROSS CENTRAL AND WESTERN NORTH DAKOTA  *****

CITY           SKY/WX    TMP DP  RH WIND       PRES   REMARKS
JAMESTOWN      RAIN      50  48  93 N12       29.90R FOG
BISMARCK       LGT RAIN  49  48  97 N13       30.00S FOG
MINOT          LGT RAIN  47  45  93 NW15      30.03S
MINOT AFB      LGT RAIN  46  45  93 N13       30.01F
GARRISON         N/A     46  45  96 N10G17    30.02R
WILLISTON      CLOUDY    46  42  86 N12       30.10S
DICKINSON      CLOUDY    44  43  96 N12       30.03R
HETTINGER      CLOUDY    45  42  89 N12G20    30.04S
$$

 *****  OTHER OBSERVATIONS NORTHEAST NORTH DAKOTA  *****

CITY           SKY/WX    TMP DP  RH WIND       PRES   REMARKS
WALHALLA       FAIR     N/A N/A N/A N17       29.93F FOG
LANGDON        NOT AVBL
CAVALIER       CLOUDY    50  50 100 N14G21    29.91S
GRAFTON        NOT AVBL
CANDO          LGT RAIN  46  48 100 N18G30    29.99S
FORT TOTTEN      N/A     48  47  98 N7        29.95S
ROLLA          LGT RAIN  46  46 100 N16G24    30.00S
RUGBY          NOT AVBL
 ***** THE ABOVE OBSERVATIONS ARE NON NWS ARE NOT QUALITY
        CONTROLLED AND MAY MIS-REPORT RAIN FOR SNOW...
$$

 *****  OTHER OBSERVATIONS SOUTHEAST NORTH DAKOTA *****

CITY           SKY/WX    TMP DP  RH WIND       PRES   REMARKS
COOPERSTOWN    LGT RAIN  50  50 100 N16       29.87F
VALLEY CITY    NOT AVBL
OAKES          NOT AVBL
GWINNER        CLOUDY    55  55 100 NW7       29.84R FOG
SHEYENNE NWR     N/A     55  55 100 N5        29.95S
BUFFALO        NOT AVBL
WYNDMERE       NOT AVBL
 ***** THE ABOVE OBSERVATIONS ARE NON NWS ARE NOT QUALITY
       CONTROLLED AND MAY MIS-REPORT RAIN FOR SNOW...
$$

  *****  WEATHER ACROSS NORTHERN MINNESOTA  *****

CITY           SKY/WX    TMP DP  RH WIND       PRES   REMARKS
FLAG ISLAND    DRIZZLE   55  54  94 N12       29.82F
WARROAD        NOT AVBL
ROSEAU         DRIZZLE   55  50  82 N7        29.85S
HALLOCK        DRIZZLE   54  52  94 N12       29.88S
THF RVR FALLS  LGT RAIN  55  55 100 N8        29.86R FOG
HALSTAD        NOT AVBL
FOSSTON        CLOUDY    63  63 100 SW10      29.83F
BAUDETTE       CLOUDY    61  60  97 SE7       29.84S
WASKISH        CLOUDY    63  63 100 CALM      29.84F
CROOKSTON      DRIZZLE   54  54 100 N7        29.85F
$$
  *****  WEATHER ACROSS CENTRAL AND WEST MINNESOTA  *****

CITY           SKY/WX    TMP DP  RH WIND       PRES   REMARKS
BEMIDJI        CLOUDY    65  64  94 S9        29.85R
PARK RAPIDS    PTSUNNY   70  66  87 S14       29.85F
WADENA         FAIR      70  66  88 S16       29.85S
DETROIT LAKES  CLOUDY    64  63  94 S7        29.84F
MOORHEAD       DRIZZLE   57  55  94 N5        29.84S
FERGUS FALLS   CLOUDY    66  66 100 S10       29.83S
ELBOW LAKE     FAIR      69  65  88 S12       29.85S FOG
MORRIS MN      NOT AVBL
STAPLES        FAIR      68  68 100 S14       29.86F
WHEATON        FAIR      68  63  83 S5        29.83F
$$
  *****  WEATHER ELSEWHERE ACROSS MINNESOTA  *****

CITY           SKY/WX    TMP DP  RH WIND       PRES   REMARKS
DULUTH         FAIR      72  66  81 S9        29.94F
INTRNTL FALLS  CLOUDY    66  63  90 VRB6      29.85S
ELY            FAIR      73  64  73 S9        29.91F
CLOQUET        FAIR      75  64  69 SE7       29.94S
BRAINERD       FAIR      76  66  71 S10       29.88S
HIBBING        FAIR      73  67  81 S8        29.90S
ALEXANDRIA     FAIR      73  66  78 S15       29.88S
SAINT CLOUD    FAIR      77  69  76 S13       29.90F
MINNEAPOLIS    PTSUNNY   82  67  60 S16       29.94F
$$

  *****  WEATHER ACROSS SOUTH DAKOTA  *****

CITY           SKY/WX    TMP DP  RH WIND       PRES   REMARKS
SIOUX FALLS    PTSUNNY   76  67  73 S14       29.86S
BROOKINGS      PTSUNNY   72  66  81 S15       29.86S
WATERTOWN      CLOUDY    65  63  93 SW12      29.85R
HURON          RAIN      56  55  97 W9        29.88R FOG
SISSETON         N/A     63  63 100 S7        29.83R
ABERDEEN       LGT RAIN  53  52  96 N13       29.86S
MITCHELL       CLOUDY    58  56  93 NW8       29.90R
PIERRE         LGT RAIN  51  49  92 N16       29.92F
MOBRIDGE       CLOUDY    51  48  89 N17G24    29.91F
RAPID CITY     CLOUDY    46  43  87 N18       30.03S
$$

  *****  SOME WEATHER IN NEARBY STATES *****

CITY           SKY/WX    TMP DP  RH WIND       PRES   REMARKS
GLASGOW MT     CLOUDY    48  41  76 CALM      30.12S
GREAT FALLS MT FAIR      44  33  65 SW7       30.10S
CHEYENNE WY    CLOUDY    41  39  93 NE13      30.02R
SCOTTSBLUFF NE LGT RAIN  48  43  82 N5        30.04R
OMAHA NE       PTSUNNY   81  66  60 S14       29.92S
DES MOINES IA  FAIR      84  66  54 S9        29.97S
DAVENPORT IA   FAIR      82  64  54 SE8       30.07S
CHICAGO IL     FAIR      87  62  43 S10       30.09S
EAU CLAIRE WI  FAIR      83  62  49 S14       29.99S
LA CROSSE WI   FAIR      83  64  52 S9        30.01S
$$

  *****  SOME NATIONAL WEATHER *****

CITY           SKY/WX    TMP DP  RH WIND       PRES   REMARKS
LA GUARDIA NY  FAIR      87  65  47 NE5       30.06F
RALEIGH NC     PTSUNNY   81  65  58 NE10      30.10S
ATLANTA GA     PTSUNNY   79  65  62 E12       30.10S
NEW ORLEANS LA FAIR      86  70  58 E12G20    29.94F HX  90
OKLAHOMA CITY  FAIR      82  67  60 S18G26    29.96S
ALBUQUERQUE NM FAIR      60  22  23 S3        30.00R
SALT LAKE CITY LGT RAIN  45  42  89 NW14      29.93R
LOS ANGELES CA FAIR      69  52  54 VRB3      29.89S
BOISE ID       FAIR      44  35  70 NW3       30.06R
SEATTLE WA     PTSUNNY   54  49  83 W6        30.17R
$$

*** WEATHER ACROSS MANITOBA...SASKATCHEWAN AND ONTARIO ***
                ***ONTARIO***

CITY           SKY/WX    TMP DP  RH WIND       PRES   REMARKS
GERALDTON      FOG       61  61 100 E7        29.99F VSB 3/4
THUNDER BAY    CLOUDY    68  64  88 E10       29.96F
SIOUX LOOKOUT  LGT RAIN  59  59 100 E3        29.88F FOG
TORONTO        SUNNY     88  66  48 VRB2      30.15F HX  90
BIG TROUT LK   RAIN      46  46 100 NE6       30.09S
PICKLE LAKE    LGT RAIN  52  52 100 E7        29.98F FOG
DRYDEN         LGT RAIN  59  57  94 E7        29.84F
KENORA         LGT RAIN  55  54  94 NE8       29.86F FOG
$$
                *** MANITOBA***

CITY           SKY/WX    TMP DP  RH WIND       PRES   REMARKS
BRANDON        LGT RAIN  48  46  93 N9        30.05S
DAUPHIN        LGT RAIN  48  48 100 N8        30.08F
ISLAND LAKE    NOT AVBL
PILOT MOUND      N/A     46  46 100 N14         N/A
THE PAS        CLOUDY    46  41  81 E5        30.15S
THOMPSON       CLOUDY    43  37  81 E3        30.21S
WINNIPEG       LGT RAIN  50  50 100 N14       29.93F
LYNN LAKE      CLOUDY    41  37  87 SE7       30.20S
CHURCHILL      PTSUNNY   39  34  81 VRB2      30.27F
GILLAM         CLOUDY    39  34  81 NE9       30.23F
$$
                ***SASKATCHEWAN***

CITY           SKY/WX    TMP DP  RH WIND       PRES   REMARKS
ESTEVAN        LGT RAIN  46  45  93 N10       30.09F
KINDERSLEY     SUNNY     46  39  76 E5        30.11S
LLOYDMINSTER   MOSUNNY   48  39  71 S9        30.08S
PRINCE ALBERT  PTSUNNY   45  41  87 VRB2      30.15S
REGINA         MOSUNNY   45  37  76 NE3       30.15R
YORKTON        CLOUDY    48  43  81 NW6       30.13R



USA.gov is the U.S. government's official web portal to all federal, state and local government web resources and services.